Location: Peterborough
(44.3091°N, 78.3197°W)
Time: 05:15:49
(UTC-04:00)

Vanguard 3 - Pass Details

Date: 29 February 2024
Orbit: 510 x 3236 km, 33.3° (Epoch: 12 April)

Event Time Altitude Azimuth Distance (km) Brightness Sun altitude
Rises 01:30:24 0° 278° (W) 7,148 11.8 -50.8°
Enters shadow 01:33:55 - 274° (W) 6,428 11.5 -50.5°
Reaches altitude 10° 01:36:13 10° 270° (W) 5,954 - -50.4°
Maximum altitude 01:50:23 31° 218° (SW) 3,613 - -49.1°
Drops below altitude 10° 02:00:18 10° 161° (SSE) 4,113 - -48.0°
Sets 02:03:30 0° 151° (SSE) 4,740 - -47.7°
